ONEWEB-0061, 45428

Orbit data source: Space-Track

ONEWEB-0061, 45428 is a payload satellite owned by One Web (UK) in LEO that was launched on Sat, 21 Mar 2020 UTC via a SOYUZ-2-1B launch vehicle from the Tyuratam Missile And Space Complex (TTMTR). Payload-class satellites include a variety of spacecraft equipped with specific instruments for various scientific and technological missions. These include communications satellites like Starlink; space stations such as the ISS; scientific satellites like the Hubble; Earth observation satellites from companies like Planet Labs, Umbra, and HawkEye 360; GPS; miniature CubeSats for education and research; and military/defense satellites.

Loading next visibility...
Identifier
45428, 2020-020E
Orbit
LEO
Last TLE update
13 hours ago
Origin
Manufacturer
One Web
Mission
Operational Commercial Communications
Bus & Motor
ARROW, Unknown motor
Mass
148 kg wet, ~140 kg dry
Launch date (UTC)
2020-03-21 (5 years ago)
Launch vehicle
SOYUZ-2-1B
Launch site
Tyuratam Missile And Space Complex (TTMTR)
Object type
Payload
Rocket body
Debris
Shape & HBR
Trap Box + 2 Pan, 5 m
Radar Cross Section
2.957 m², Large (>1 m²)

Expand to show TLE details & history

TLE from 13 hours ago
0 ONEWEB-0061
1 45428U 20020E   25169.69078611  .00000458  00000-0  12550-2 0  9990
2 45428  87.8844  93.4980 0001989  80.1396 279.9956 13.11417834254989
Epoch: 2025-06-18T16:34Z
TLE epoch observation values (Epoch: 2025-06-18T16:34:43.919Z)
Latitude
-0.00009°
Longitude
-62.3542°
Altitude
1,220.306 km
Speed
7.244 km/s
True Right ascension
06h 13m 59s
True Declination
0° 00' 00"
Sunlit
Object was in daylight at epoch
Visualization orbit readout
Latitude
79.99745°
Longitude
105.50708°
Altitude
1,229.72 km
Speed
7.247 km/s
Apparent Right ascension
04h 29m 40s
Apparent Declination
43° 20' 33"
Sunlit
Object is in daylight
Visualization observer readout
Local Sidereal Time
16:44:36
Azimuth
2.735° NNE
Elevation
-6.673°
Doppler factor
1
Orbital elements
Apogee altitude
1,216.308 km
Perigee altitude
1,213.287 km
Semi-major axis
7,592.935 km
Eccentricity
0.0002
Inclination
87.8844°
RAAN
93.498°
Arg. of periapsis
80.1396°
True anomaly
Unknown
Mean anomaly
279.9956°
Eccentric anomaly
Unknown
Mean motion
3.28041 °/min
Orbital period
109.74 mins
BSTAR
0.001255
Loading maneuver chart data...
Loading SW <> Apogee altitude chart data...
Loading historical data...
Loading historical data...
Loading historical data...
Loading historical data...
Loading historical data...
Loading historical data...
Loading historical data...

ONEWEB-0061 Visibility forecast

Observer location: undefined°, undefined°

Span
Click to sort rows by Start time (UTC) header in descending order
Start Az.
Max El. time (UTC)
Max El. Az.
Max El.
End time (UTC)
End Az.
12 mins2025-06-19 06:00:13.312Z21.581° NNE2025-06-19 06:06:13.312Z80.489° E26.709°2025-06-19 06:12:13.312Z137.468° SSE
11 mins2025-06-19 07:51:13.312Z341.565° N2025-06-19 07:56:13.312Z276.695° WNW36.681°2025-06-19 08:02:13.312Z208.552° SW
11 mins2025-06-19 18:20:13.312Z134.537° SE2025-06-19 18:25:13.312Z81.908° E29.051°2025-06-19 18:31:13.312Z20.963° NNE
12 mins2025-06-19 20:09:13.312Z210.955° SW2025-06-19 20:15:13.312Z280.576° WNW34.303°2025-06-19 20:21:13.312Z344.824° N
4 mins2025-06-20 05:50:13.312Z34.179° NE2025-06-20 05:54:13.312Z76.718° E24.384°2025-06-20 05:54:13.312Z76.718° E
|